Chon Buri, Thailand

6:25 AM ICT on February 20, 2017 (GMT +0700)
Bangkok (Suvarnabhumi)

Weather History for VTBS - December, 2012

Change the Weather History Date:

Monday, December 31, 2012

  Actual Average (VTBD) Record (VTBD)
Temperature  
Mean Temperature 80 °F -  
Max Temperature 88 °F 90 °F 93 °F (1997)
Min Temperature 73 °F 69 °F 67 °F (2013)
Cooling Degree Days 16    
Growing Degree Days 30 (Base 50)    
Moisture  
Dew Point 61 °F    
Average Humidity 54    
Maximum Humidity 66    
Minimum Humidity 33    
Precipitation  
Precipitation 0.00 in 0.01 in - ()
Sea Level Pressure  
Sea Level Pressure 29.86 in    
Wind  
Wind Speed 11 mph ()    
Max Wind Speed 18 mph    
Max Gust Speed -    
Visibility 6.1 miles    
Events      
Averages and records for this station are not official NWS values.
T = Trace of Precipitation, MM = Missing Value Source: Averaged Metar Reports

Daily Weather History Graph

Daily Weather History Graph

Search for Another Location

Airport or City:

Trip Planner

Search our weather history database for the weather conditions in past years. The results will help you decide how hot, cold, wet, or windy it might be!

Date:

Astronomy

Dec. 31, 2012 Rise Set
Actual Time 6:38 AM ICT 5:59 PM ICT
Civil Twilight 6:15 AM ICT 6:22 PM ICT
Nautical Twilight 5:48 AM ICT 6:49 PM ICT
Astronomical Twilight 5:22 AM ICT 7:15 PM ICT
Moon 8:28 PM ICT (12/31) 8:29 AM ICT (12/31)
Length of Visible Light 12h 07m
Length of Day
11h 21m
Waning Gibbous, 93% of the Moon is Illuminated
Dec 31
Waning Gibbous
Jan 5
Last Quarter
Jan 12
New
Jan 19
First Quarter
Jan 27
Full

Hourly Weather History & Observations

Time (ICT) Temp. Heat Index Dew Point Humidity Pressure Visibility Wind Dir Wind Speed Gust Speed Precip Events Conditions
12:00 AM 82.4 °F 86.3 °F 69.8 °F 66% 29.83 in 6.2 mi ENE 10.4 mph - N/A   Scattered Clouds
12:30 AM 82.4 °F 85.4 °F 68.0 °F 62% 29.83 in 6.2 mi East 11.5 mph - N/A   Scattered Clouds
1:00 AM 82 °F - 68 °F 55% 29.82 in 5 mi NNE 6.9 mph - -   Haze
1:00 AM 80.6 °F 82.7 °F 66.2 °F 61% 29.83 in 6.2 mi East 12.7 mph - N/A   Scattered Clouds
1:30 AM 80.6 °F 82.7 °F 66.2 °F 61% 29.83 in 6.2 mi East 12.7 mph - N/A   Scattered Clouds
2:00 AM 80.6 °F 82.3 °F 64.4 °F 58% 29.83 in 6.2 mi East 11.5 mph - N/A   Scattered Clouds
2:30 AM 80.6 °F 82.3 °F 64.4 °F 58% 29.83 in 6.2 mi East 12.7 mph - N/A   Scattered Clouds
3:00 AM 78.8 °F - 62.6 °F 57% 29.83 in 6.2 mi East 13.8 mph - N/A   Scattered Clouds
3:30 AM 78.8 °F - 62.6 °F 57% 29.80 in 6.2 mi East 13.8 mph - N/A   Scattered Clouds
4:00 AM 77.0 °F - 62.6 °F 61% 29.80 in 6.2 mi East 12.7 mph - N/A   Scattered Clouds
4:30 AM 77.0 °F - 60.8 °F 57% 29.83 in 6.2 mi East 13.8 mph - N/A   Scattered Clouds
5:00 AM 75.2 °F - 60.8 °F 61% 29.83 in 6.2 mi East 17.3 mph - N/A   Scattered Clouds
5:30 AM 75.2 °F - 60.8 °F 61% 29.83 in 6.2 mi ENE 13.8 mph - N/A   Scattered Clouds
6:00 AM 75.2 °F - 59.0 °F 57% 29.86 in 6.2 mi ENE 13.8 mph - N/A   Scattered Clouds
6:30 AM 73.4 °F - 59.0 °F 61% 29.86 in 6.2 mi ENE 12.7 mph - N/A   Scattered Clouds
7:00 AM 74 °F - 59 °F 51% 29.85 in 5 mi NNE 11.5 mph - -   Haze
7:00 AM 73.4 °F - 59.0 °F 61% 29.86 in 6.2 mi ENE 12.7 mph - N/A   Scattered Clouds
7:30 AM 73.4 °F - 59.0 °F 61% 29.89 in 6.2 mi ENE 13.8 mph - N/A   Mostly Cloudy
8:00 AM 73.4 °F - 59.0 °F 61% 29.89 in 6.2 mi ENE 16.1 mph - N/A   Mostly Cloudy
8:30 AM 75.2 °F - 59.0 °F 57% 29.92 in 6.2 mi ENE 15.0 mph - N/A   Scattered Clouds
9:00 AM 75.2 °F - 59.0 °F 57% 29.92 in 6.2 mi ENE 17.3 mph - N/A   Scattered Clouds
9:30 AM 77.0 °F - 59.0 °F 54% 29.92 in 6.2 mi ENE 16.1 mph - N/A   Scattered Clouds
10:00 AM 77.0 °F - 59.0 °F 54% 29.95 in 6.2 mi ENE 18.4 mph - N/A   Scattered Clouds
10:30 AM 77.0 °F - 59.0 °F 54% 29.95 in 6.2 mi ENE 15.0 mph - N/A   Scattered Clouds
11:00 AM 78.8 °F - 59.0 °F 51% 29.92 in 6.2 mi NE 17.3 mph - N/A   Scattered Clouds
11:30 AM 78.8 °F - 59.0 °F 51% 29.92 in 6.2 mi NE 15.0 mph - N/A   Scattered Clouds
12:00 PM 80.6 °F 81.5 °F 60.8 °F 51% 29.92 in 6.2 mi ENE 15.0 mph - N/A   Scattered Clouds
12:30 PM 80.6 °F 81.1 °F 59.0 °F 48% 29.89 in 6.2 mi ENE 15.0 mph - N/A   Scattered Clouds
1:00 PM 86 °F - 61 °F 33% 29.84 in 5 mi NNE 11.5 mph - -   Haze
1:00 PM 82.4 °F 82.5 °F 59.0 °F 45% 29.86 in 6.2 mi ENE 15.0 mph - N/A   Mostly Cloudy
2:00 PM 82.4 °F 82.5 °F 59.0 °F 45% 29.83 in 6.2 mi NE 12.7 mph - N/A   Mostly Cloudy
2:30 PM 82.4 °F 82.5 °F 59.0 °F 45% 29.83 in 6.2 mi NE 12.7 mph - N/A   Mostly Cloudy
3:00 PM 82.4 °F 82.5 °F 59.0 °F 45% 29.80 in 6.2 mi NNE 11.5 mph - N/A   Mostly Cloudy
3:30 PM 82.4 °F 82.5 °F 59.0 °F 45% 29.80 in 6.2 mi NE 10.4 mph - N/A   Mostly Cloudy
4:00 PM 84.2 °F 84.4 °F 60.8 °F 45% 29.80 in 6.2 mi NNE 11.5 mph - N/A   Mostly Cloudy
4:30 PM 84.2 °F 83.8 °F 59.0 °F 42% 29.80 in 6.2 mi NE 8.1 mph - N/A   Mostly Cloudy
5:00 PM 82.4 °F 82.9 °F 60.8 °F 48% 29.80 in 6.2 mi NNE 9.2 mph - N/A   Mostly Cloudy
5:30 PM 82.4 °F 82.9 °F 60.8 °F 48% 29.80 in 6.2 mi NNE 9.2 mph - N/A   Mostly Cloudy
6:00 PM 80.6 °F 81.5 °F 60.8 °F 51% 29.83 in 6.2 mi NNE 8.1 mph - N/A   Mostly Cloudy
6:30 PM 77.0 °F - 60.8 °F 57% 29.83 in 6.2 mi NNE 6.9 mph - N/A   Mostly Cloudy
7:00 PM 82 °F - 62 °F 40% 29.82 in 5 mi North 8.1 mph - -   Haze
7:00 PM 77.0 °F - 60.8 °F 57% 29.83 in 6.2 mi NNE 4.6 mph - N/A   Mostly Cloudy
7:30 PM 77.0 °F - 62.6 °F 61% 29.86 in 6.2 mi NNE 5.8 mph - N/A   Mostly Cloudy
8:00 PM 77.0 °F - 62.6 °F 61% 29.86 in 6.2 mi NE 5.8 mph - N/A   Mostly Cloudy
8:30 PM 77.0 °F - 62.6 °F 61% 29.89 in 6.2 mi NE 6.9 mph - N/A   Mostly Cloudy
9:00 PM 78.8 °F - 62.6 °F 57% 29.89 in 6.2 mi ENE 9.2 mph - N/A   Scattered Clouds
9:30 PM 78.8 °F - 60.8 °F 54% 29.89 in 6.2 mi ENE 9.2 mph - N/A   Scattered Clouds
10:00 PM 77.0 °F - 60.8 °F 57% 29.89 in 6.2 mi ENE 10.4 mph - N/A   Scattered Clouds
10:30 PM 77.0 °F - 60.8 °F 57% 29.92 in 6.2 mi ENE 10.4 mph - N/A   Scattered Clouds
11:00 PM 77.0 °F - 59.0 °F 54% 29.89 in 6.2 mi East 8.1 mph - N/A   Scattered Clouds
11:30 PM 77.0 °F - 59.0 °F 54% 29.92 in 6.2 mi East 10.4 mph - N/A   Scattered Clouds